Location: Piedmont
(45.8748°N, 74.1254°W)
Time: 14:28:04
(UTC+00:00)

N. Korean satellite - Pass Details

Date: 08 December 2021
Orbit: 446 x 491 km, 97.3° (Epoch: 18 January)

Event Time Altitude Azimuth Distance (km) Brightness Sun altitude
Rises 09:07:45 0° 34° (NNE) 2,459 10.6 -33.4°
Reaches altitude 10° 09:10:57 10° 68° (ENE) 1,579 9.9 -32.9°
Maximum altitude 09:12:15 12° 90° (E) 1,470 9.8 -32.6°
Drops below altitude 10° 09:13:33 10° 113° (ESE) 1,575 9.9 -32.4°
Sets 09:16:43 0° 147° (SSE) 2,443 10.5 -31.9°
